Lee's Summit, MO

12:14 AM CDT on October 20, 2017 (GMT -0500)
Lee's Summit Municipal

Weather History for KLXT - May, 2014

Change the Weather History Date:

Saturday, May 10, 2014

  Actual Average (KMKC) Record (KMKC)
Temperature  
Mean Temperature 70 °F -  
Max Temperature 84 °F 73 °F 90 °F (2011)
Min Temperature 57 °F 53 °F 43 °F (2002)
Cooling Degree Days 6    
Growing Degree Days 20 (Base 50)    
Moisture  
Dew Point 55 °F    
Average Humidity 55    
Maximum Humidity 81    
Minimum Humidity 46    
Precipitation  
Precipitation 0.00 in - - ()
Sea Level Pressure  
Sea Level Pressure 29.79 in    
Wind  
Wind Speed 8 mph (SSE)    
Max Wind Speed 20 mph    
Max Gust Speed 31 mph    
Visibility 10 miles    
Events Rain , Thunderstorm    
Averages and records for this station are not official NWS values.
T = Trace of Precipitation, MM = Missing Value Source: NWS Daily Summary

Daily Weather History Graph

Daily Weather History Graph

Search for Another Location

Airport or City:

Trip Planner

Search our weather history database for the weather conditions in past years. The results will help you decide how hot, cold, wet, or windy it might be!

Date:

Astronomy

May. 10, 2014 Rise Set
Actual Time 6:09 AM CDT 8:18 PM CDT
Civil Twilight 5:39 AM CDT 8:48 PM CDT
Nautical Twilight 5:03 AM CDT 9:24 PM CDT
Astronomical Twilight 4:24 AM CDT 10:04 PM CDT
Moon 4:17 PM CDT (5/10) 3:40 AM CDT (5/10)
Length of Visible Light 15h 08m
Length of Day
14h 09m
Waxing Gibbous, 82% of the Moon is Illuminated
May 10
Waxing Gibbous
May 14
Full
May 21
Last Quarter
May 28
New
Jun 5
First Quarter

Hourly Weather History & Observations

Time (CDT) Temp. Heat Index Dew Point Humidity Pressure Visibility Wind Dir Wind Speed Gust Speed Precip Events Conditions
12:53 AM 61.0 °F - 43.0 °F 52% 29.89 in 10.0 mi SSE 4.6 mph - N/A   Clear
1:53 AM 60.1 °F - 43.0 °F 53% 29.87 in 10.0 mi SSE 5.8 mph - N/A   Clear
2:53 AM 57.9 °F - 44.1 °F 60% 29.86 in 10.0 mi SSE 6.9 mph - N/A   Clear
3:53 AM 57.0 °F - 44.1 °F 62% 29.85 in 10.0 mi SE 4.6 mph - N/A   Clear
4:53 AM 57.0 °F - 43.0 °F 59% 29.86 in 10.0 mi SE 4.6 mph - N/A   Clear
6:53 AM 57.9 °F - 46.0 °F 65% 29.88 in 10.0 mi SSE 6.9 mph - N/A   Clear
7:53 AM 62.1 °F - 48.0 °F 60% 29.89 in 10.0 mi SSE 6.9 mph - N/A   Clear
8:53 AM 66.9 °F - 48.9 °F 52% 29.88 in 10.0 mi SSE 10.4 mph - N/A   Clear
9:53 AM 71.1 °F - 51.1 °F 49% 29.86 in 10.0 mi SE 9.2 mph 17.3 mph N/A   Clear
10:53 AM 73.9 °F - 55.9 °F 53% 29.85 in 10.0 mi SE 9.2 mph - N/A   Clear
11:53 AM 77.0 °F - 57.0 °F 50% 29.83 in 10.0 mi SSE 9.2 mph 20.7 mph N/A   Clear
12:53 PM 79.0 °F - 59.0 °F 50% 29.80 in 10.0 mi South 13.8 mph 20.7 mph N/A   Clear
1:53 PM 81.0 °F 81.6 °F 60.1 °F 49% 29.76 in 10.0 mi South 13.8 mph 27.6 mph N/A   Clear
2:53 PM 82.0 °F 82.7 °F 61.0 °F 49% 29.74 in 10.0 mi South 13.8 mph 25.3 mph N/A   Clear
3:53 PM 78.1 °F - 63.0 °F 60% 29.72 in 9.0 mi South 11.5 mph 27.6 mph 0.00 in Rain Light Rain
4:33 PM 82.9 °F 83.7 °F 62.1 °F 49% 29.69 in 10.0 mi South 15.0 mph 28.8 mph 0.00 in Thunderstorm Partly Cloudy
4:53 PM 84.0 °F 84.4 °F 61.0 °F 46% 29.67 in 10.0 mi SSW 19.6 mph 31.1 mph 0.00 in Thunderstorm Clear
5:13 PM 84.0 °F 84.4 °F 61.0 °F 46% 29.70 in 10.0 mi SSW 18.4 mph 28.8 mph N/A   Partly Cloudy
5:53 PM 82.0 °F 82.7 °F 61.0 °F 49% 29.70 in 10.0 mi SW 17.3 mph 25.3 mph N/A   Clear
6:53 PM 81.0 °F 81.7 °F 61.0 °F 50% 29.71 in 10.0 mi SSW 10.4 mph - N/A   Mostly Cloudy
7:53 PM 79.0 °F - 60.1 °F 52% 29.71 in 10.0 mi South 5.8 mph - N/A   Clear
8:53 PM 75.9 °F - 60.1 °F 58% 29.75 in 10.0 mi South 8.1 mph - N/A   Clear
10:53 PM 72.0 °F - 61.0 °F 68% 29.78 in 10.0 mi ESE 4.6 mph - N/A   Clear
11:53 PM 66.0 °F - 60.1 °F 81% 29.80 in 10.0 mi East 12.7 mph - N/A   Clear